Weather History for KBLM - January, 2014

Change the Weather History Date:

Monday, January 27, 2014

  Actual Average Record
Temperature  
Mean Temperature 34 °F -  
Max Temperature 48 °F 36 °F 62 °F (2002)
Min Temperature 21 °F 22 °F 10 °F (2003)
Degree Days  
Heating Degree Days 30    
Moisture  
Dew Point 18 °F    
Average Humidity 49    
Maximum Humidity 70    
Minimum Humidity 31    
Precipitation  
Precipitation 0.00 in - - ()
Sea Level Pressure  
Sea Level Pressure 29.78 in    
Wind  
Wind Speed 11 mph (WSW)    
Max Wind Speed 25 mph    
Max Gust Speed 33 mph    
Visibility 10 miles    
Events      
Averages and records for this station are not official NWS values.
T = Trace of Precipitation, MM = Missing Value Source: NWS Daily Summary

Daily Weather History Graph

Daily Weather History Graph

Search for Another Location

Airport or City:

Trip Planner

Search our weather history database for the weather conditions in past years. The results will help you decide how hot, cold, wet, or windy it might be!

Date:

Astronomy

Jan. 27, 2014 Rise Set
Actual Time 7:09 AM EST 5:09 PM EST
Civil Twilight 6:40 AM EST 5:38 PM EST
Nautical Twilight 6:07 AM EST 6:11 PM EST
Astronomical Twilight 5:35 AM EST 6:43 PM EST
Moon 3:48 AM EST (1/27) 1:52 PM EST (1/27)
Length of Visible Light 10h 57m
Length of Day
9h 59m
Waning Crescent, 15% of the Moon is Illuminated
Jan 27
Waning Crescent
Jan 30
New
Feb 6
First Quarter
Feb 14
Full
Feb 22
Last Quarter

Hourly Weather History & Observations

Time (EST) Temp. Windchill Dew Point Humidity Pressure Visibility Wind Dir Wind Speed Gust Speed Precip Events Conditions
12:15 AM 33.8 °F 27.0 °F 23.0 °F 65% 29.76 in 10.0 mi South 8.1 mph - N/A   Mostly Cloudy
12:35 AM 35.6 °F 28.6 °F 24.8 °F 65% 29.75 in 10.0 mi South 9.2 mph - N/A   Scattered Clouds
12:55 AM 35.6 °F 28.6 °F 26.6 °F 70% 29.74 in 10.0 mi South 9.2 mph - N/A   Clear
1:15 AM 37.4 °F 30.3 °F 26.6 °F 65% 29.73 in 10.0 mi SSW 10.4 mph 17.3 mph N/A   Clear
1:35 AM 39.2 °F 32.5 °F 24.8 °F 56% 29.72 in 10.0 mi SSW 10.4 mph 17.3 mph N/A   Clear
1:55 AM 39.2 °F 32.5 °F 24.8 °F 56% 29.72 in 10.0 mi SSW 10.4 mph 19.6 mph N/A   Clear
2:15 AM 39.2 °F 33.6 °F 24.8 °F 56% 29.71 in 10.0 mi SSW 8.1 mph - N/A   Clear
2:35 AM 39.2 °F 34.2 °F 24.8 °F 56% 29.71 in 10.0 mi SSW 6.9 mph - N/A   Clear
2:55 AM 39.2 °F 35.0 °F 24.8 °F 56% 29.71 in 10.0 mi SSW 5.8 mph - N/A   Clear
3:15 AM 39.2 °F 34.2 °F 24.8 °F 56% 29.71 in 10.0 mi SSW 6.9 mph - N/A   Clear
3:35 AM 39.2 °F 35.0 °F 24.8 °F 56% 29.70 in 10.0 mi SSW 5.8 mph - N/A   Partly Cloudy
3:55 AM 37.4 °F 32.8 °F 24.8 °F 60% 29.70 in 10.0 mi SSW 5.8 mph - N/A   Mostly Cloudy
4:15 AM 37.4 °F 32.1 °F 24.8 °F 60% 29.68 in 10.0 mi South 6.9 mph - N/A   Overcast
4:35 AM 37.4 °F 32.1 °F 24.8 °F 60% 29.69 in 10.0 mi SSW 6.9 mph - N/A   Mostly Cloudy
4:55 AM 37.4 °F 32.1 °F 24.8 °F 60% 29.67 in 10.0 mi South 6.9 mph - N/A   Partly Cloudy
5:15 AM 37.4 °F 31.4 °F 24.8 °F 60% 29.66 in 10.0 mi SSW 8.1 mph - N/A   Mostly Cloudy
5:35 AM 37.4 °F 30.3 °F 24.8 °F 60% 29.65 in 10.0 mi SSW 10.4 mph 16.1 mph N/A   Overcast
5:55 AM 39.2 °F 33.0 °F 24.8 °F 56% 29.65 in 10.0 mi SSW 9.2 mph - N/A   Overcast
6:15 AM 39.2 °F 33.6 °F 26.6 °F 61% 29.65 in 10.0 mi SSW 8.1 mph - N/A   Overcast
6:35 AM 39.2 °F 33.0 °F 26.6 °F 61% 29.64 in 10.0 mi SSW 9.2 mph - N/A   Overcast
6:55 AM 39.2 °F 33.0 °F 26.6 °F 61% 29.63 in 10.0 mi SSW 9.2 mph - N/A   Overcast
7:15 AM 39.2 °F 32.0 °F 26.6 °F 61% 29.63 in 10.0 mi SSW 11.5 mph 16.1 mph N/A   Overcast
7:35 AM 39.2 °F 32.5 °F 26.6 °F 61% 29.64 in 10.0 mi SSW 10.4 mph - N/A   Mostly Cloudy
7:55 AM 39.2 °F 32.0 °F 26.6 °F 61% 29.63 in 10.0 mi SSW 11.5 mph - N/A   Mostly Cloudy
8:15 AM 39.2 °F 33.6 °F 26.6 °F 61% 29.63 in 10.0 mi SW 8.1 mph - N/A   Overcast
8:35 AM 41.0 °F 33.9 °F 26.6 °F 57% 29.62 in 10.0 mi SSW 12.7 mph 16.1 mph N/A   Mostly Cloudy
8:55 AM 42.8 °F 36.6 °F 26.6 °F 53% 29.63 in 10.0 mi SW 11.5 mph 19.6 mph N/A   Scattered Clouds
9:15 AM 42.8 °F 38.0 °F 26.6 °F 53% 29.64 in 10.0 mi WSW 8.1 mph - N/A   Clear
9:35 AM 42.8 °F 37.5 °F 26.6 °F 53% 29.64 in 10.0 mi SW 9.2 mph - N/A   Clear
9:55 AM 44.6 °F 39.2 °F 26.6 °F 49% 29.65 in 10.0 mi WSW 10.4 mph 16.1 mph N/A   Clear
10:15 AM 44.6 °F 38.4 °F 28.4 °F 53% 29.65 in 10.0 mi SW 12.7 mph 18.4 mph N/A   Partly Cloudy
10:35 AM 46.4 °F 39.8 °F 28.4 °F 50% 29.65 in 10.0 mi WSW 16.1 mph 20.7 mph N/A   Mostly Cloudy
10:55 AM 46.4 °F 41.1 °F 28.4 °F 50% 29.65 in 10.0 mi WSW 11.5 mph - N/A   Partly Cloudy
11:15 AM 46.4 °F 41.9 °F 28.4 °F 50% 29.65 in 10.0 mi WSW 9.2 mph 23.0 mph N/A   Partly Cloudy
11:35 AM 46.4 °F 42.4 °F 28.4 °F 50% 29.65 in 10.0 mi SW 8.1 mph - N/A   Scattered Clouds
11:55 AM 48.2 °F - 28.4 °F 46% 29.64 in 10.0 mi West 11.5 mph 16.1 mph N/A   Scattered Clouds
12:15 PM 46.4 °F 39.2 °F 28.4 °F 50% 29.65 in 10.0 mi West 18.4 mph 24.2 mph N/A   Clear
12:35 PM 46.4 °F 39.5 °F 28.4 °F 50% 29.65 in 10.0 mi West 17.3 mph 21.9 mph N/A   Clear
12:55 PM 44.6 °F 35.9 °F 26.6 °F 49% 29.67 in 10.0 mi WNW 23.0 mph 28.8 mph N/A   Clear
1:15 PM 44.6 °F 36.1 °F 24.8 °F 46% 29.68 in 10.0 mi WNW 21.9 mph 28.8 mph N/A   Clear
1:35 PM 42.8 °F 34.0 °F 24.8 °F 49% 29.70 in 10.0 mi WNW 20.7 mph 32.2 mph N/A   Clear
1:55 PM 42.8 °F 34.5 °F 24.8 °F 49% 29.71 in 10.0 mi NW 18.4 mph 28.8 mph N/A   Partly Cloudy
2:15 PM 39.2 °F 29.0 °F 24.8 °F 56% 29.72 in 10.0 mi WNW 21.9 mph 29.9 mph N/A   Partly Cloudy
2:35 PM 39.2 °F 28.3 °F 24.8 °F 56% 29.74 in 10.0 mi WNW 25.3 mph 33.4 mph N/A   Clear
2:55 PM 39.2 °F 30.5 °F 19.4 °F 45% 29.75 in 10.0 mi WNW 16.1 mph 26.5 mph N/A   Clear
3:15 PM 37.4 °F 27.5 °F 19.4 °F 48% 29.77 in 10.0 mi WNW 18.4 mph 29.9 mph N/A   Mostly Cloudy
3:35 PM 37.4 °F 27.2 °F 17.6 °F 45% 29.79 in 10.0 mi WNW 19.6 mph 27.6 mph N/A   Overcast
3:55 PM 35.6 °F 24.5 °F 15.8 °F 44% 29.81 in 10.0 mi WNW 20.7 mph 32.2 mph N/A   Overcast
4:15 PM 33.8 °F 21.9 °F 10.4 °F 38% 29.83 in 10.0 mi NW 21.9 mph 28.8 mph N/A   Overcast
4:35 PM 30.2 °F 17.8 °F 10.4 °F 44% 29.85 in 10.0 mi WNW 19.6 mph 26.5 mph N/A   Overcast
4:55 PM 30.2 °F 17.4 °F 8.6 °F 40% 29.85 in 10.0 mi WNW 20.7 mph 26.5 mph N/A   Overcast
5:15 PM 28.4 °F 17.0 °F 6.8 °F 40% 29.86 in 10.0 mi WNW 15.0 mph 25.3 mph N/A   Overcast
5:35 PM 28.4 °F 16.2 °F 5.0 °F 37% 29.87 in 10.0 mi WNW 17.3 mph 23.0 mph N/A   Overcast
5:55 PM 28.4 °F 15.8 °F 5.0 °F 37% 29.89 in 10.0 mi NW 18.4 mph 21.9 mph N/A   Overcast
6:15 PM 28.4 °F 18.5 °F 3.2 °F 34% 29.92 in 10.0 mi WNW 11.5 mph 24.2 mph N/A   Overcast
6:35 PM 28.4 °F 17.5 °F 3.2 °F 34% 29.94 in 10.0 mi WNW 13.8 mph 23.0 mph N/A   Overcast
6:55 PM 28.4 °F 16.6 °F 3.2 °F 34% 29.95 in 10.0 mi WNW 16.1 mph 21.9 mph N/A   Overcast
7:15 PM 28.4 °F 18.5 °F 3.2 °F 34% 29.96 in 10.0 mi WNW 11.5 mph - N/A   Overcast
7:35 PM 28.4 °F 17.5 °F 3.2 °F 34% 29.97 in 10.0 mi WNW 13.8 mph 20.7 mph N/A   Overcast
7:55 PM 28.4 °F 17.0 °F 1.4 °F 31% 29.98 in 10.0 mi WNW 15.0 mph 19.6 mph N/A   Overcast
8:15 PM 26.6 °F 16.2 °F 3.2 °F 37% 29.98 in 10.0 mi WNW 11.5 mph 19.6 mph N/A   Overcast
8:35 PM 26.6 °F 15.7 °F 1.4 °F 34% 29.99 in 10.0 mi NW 12.7 mph 19.6 mph N/A   Overcast
8:55 PM 26.6 °F 13.4 °F 1.4 °F 34% 30.00 in 10.0 mi NW 18.4 mph 23.0 mph N/A   Overcast
9:15 PM 26.6 °F 15.2 °F -0.4 °F 31% 30.02 in 10.0 mi NW 13.8 mph 17.3 mph N/A   Overcast
9:35 PM 26.6 °F 15.2 °F 1.4 °F 34% 30.03 in 10.0 mi NNW 13.8 mph - N/A   Overcast
9:55 PM 24.8 °F 11.9 °F 1.4 °F 36% 30.03 in 10.0 mi NW 16.1 mph - N/A   Scattered Clouds
10:15 PM 24.8 °F 13.4 °F -0.4 °F 34% 30.04 in 10.0 mi NNW 12.7 mph - N/A   Clear
10:35 PM 23.0 °F 11.1 °F -0.4 °F 36% 30.04 in 10.0 mi NW 12.7 mph - N/A   Clear
10:55 PM 23.0 °F 10.1 °F -0.4 °F 36% 30.06 in 10.0 mi NW 15.0 mph - N/A   Clear
11:15 PM 21.2 °F 6.8 °F -2.2 °F 36% 30.07 in 10.0 mi NW 17.3 mph - N/A   Clear
11:35 PM 21.2 °F 8.3 °F -2.2 °F 36% 30.07 in 10.0 mi WNW 13.8 mph - N/A   Clear
11:55 PM 21.2 °F 8.3 °F -2.2 °F 36% 30.08 in 10.0 mi NW 13.8 mph - N/A   Clear